Hourly Data Report for June 25, 2021

HALL BEACH A
NUNAVUT
Current Station Operator: NAVCAN

68°46'33.000" N
81°14'33.000" W
9.10 m
2402354
71293
YUX

Download Data

Hourly Data (June 2021)
Hourly Data Report for June 25, 2021
TIME
LST
Temp Definition
°C
Dew Point Definition
°C
Rel Hum Definition
%
Precip. Amount Definition
mm

Wind Dir Definition
10's deg

Wind Spd Definition
km/h
Visibility Definition
km
Stn Press Definition
kPa
Hmdx Definition


Wind Chill Definition


Weather Definition


00:00 0.8 0.7 99 0.0 8 15 16.1 99.35     LegendNANA
01:00 0.9 0.8 99 0.0 10 17 16.1 99.37     LegendNANA
02:00 1.2 0.8 97 0.0 11 17 16.1 99.39     LegendNANA
03:00 1.6 1.0 96 0.0 11 21 16.1 99.41     LegendNANA
04:00 1.5 0.8 95 0.0 10 24 16.1 99.43     LegendNANA
05:00 1.6 0.9 95 0.0 10 18 16.1 99.46     LegendNANA
06:00 1.7 1.0 95 0.0 9 22 16.1 99.50     LegendNANA
07:00 2.0 1.1 94 0.0 9 21 16.1 99.53     LegendNANA
08:00 2.0 1.1 94 0.0 9 18 16.1 99.56     LegendNANA
09:00 1.9 1.0 94 0.0 9 17 16.1 99.60     LegendNANA
10:00 1.8 1.2 96 0.0 9 18 16.1 99.61     LegendNANA
11:00 1.7 1.1 96 0.0 10 13 16.1 99.64     LegendNANA
12:00 1.7 1.1 96 0.0 9 15 16.1 99.67     LegendNANA
13:00 1.4 1.1 98 0.0 11 15 0.6 99.74     Fog
14:00 1.4 1.3 99 0.0 12 15 0.6 99.78     Fog
15:00 1.7 1.4 98 0.0 13 17 1.0 99.84     Fog
16:00 1.2 1.0 98 0.0 12 13 0.6 99.91     Fog
17:00 1.3 0.9 97 0.0 10 13 16.1 99.96     LegendNANA
18:00 1.3 0.8 96 0.0 9 17 16.1 100.01     LegendNANA
19:00 0.2 0.2 100 0.0 13 17 0.2 100.09     Fog
20:00 0.0 0.0 100 0.0 8 11 0.4 100.11   -4 Fog
21:00 -0.1 -0.1 100 0.0 8 11 2.4 100.14   -4 Fog
22:00 -0.2 -0.2 100 0.0 4 13 14.5 100.17   -4 LegendNANA
23:00 -0.8 -0.8 100 0.0 5 15 0.6 100.16   -5 Freezing Fog

Notes on Data Quality.

Legend

  • E = Estimated
  • M = Missing
  • NA = Not Available*
  • [empty] = Indicates an unobserved value
Date modified: